This demonstration page uses our WeatherBlox Daily Observations layout. Learn more.

Left ArrowRight Arrow

39.08367, -84.50855

Hourly Observations for August 22, 2020

Temp ( °F °C ) Dew Point ( °F °C ) Humidity (%) Winds ( mph kmh ) Pressure ( in mb ) Visibility ( mi km ) Precip ( " mm )
12:53 am 00:53 Clear 69 20.6 67 19.4 93 93 N N/A 29.93 1014 10 16 N/A
1:53 am 01:53 Clear 69 20.6 67 19.4 93 93 N N/A 29.92 1013 9 14 N/A
2:53 am 02:53 Clear 69 20.6 67 19.4 93 93 N N/A 29.92 1013 8 13 N/A
3:53 am 03:53 Clear 69 20.6 67 19.4 93 93 N N/A 29.92 1013 7 11 N/A
4:53 am 04:53 Clear with Mist and Fog 68 20 67 19.4 96 96 N 3 6 29.92 1013 6 10 N/A
5:53 am 05:53 Partly Cloudy 68 20 67 19.4 96 96 N N/A 29.93 1014 7 11 N/A
6:53 am 06:53 Mostly Cloudy with Mist and Fog 67 19.4 66 18.9 97 97 N N/A 29.94 1014 5 8 N/A
7:53 am 07:53 Mostly Cloudy with Mist and Fog 69 20.6 67 19.4 93 93 N N/A 29.96 1014 5 8 N/A
8:53 am 08:53 Mostly Cloudy with Mist and Fog 71 21.7 68 20 90 90 N N/A 29.97 1015 6 10 N/A
9:53 am 09:53 Mostly Cloudy with Light Rain 74 23.3 68 20 82 82 NE 3 6 29.97 1015 10 16 0.00 0.00
10:53 am 10:53 Mostly Cloudy 77 25 68 20 74 74 E 5 7 29.98 1015 10 16 0.00 0.00
11:53 am 11:53 Mostly Cloudy 81 27.2 69 20.6 67 67 N N/A 29.97 1015 10 16 N/A
12:45 pm 12:45 Mostly Cloudy with Nearby Thunderstorms 80 26.7 68 20 67 67 E 6 9 29.95 1014 10 16 N/A
12:53 pm 12:53 Mostly Cloudy with Nearby Thunderstorms 81 27.2 69 20.6 67 67 E 5 7 29.96 1014 10 16 N/A
1:02 pm 13:02 Cloudy 81 27.2 67 19.4 62 62 ENE 3 6 29.95 1014 10 16 N/A
1:53 pm 13:53 Mostly Cloudy 78 25.6 68 20 71 71 E 6 9 29.96 1014 10 16 N/A
2:26 pm 14:26 Cloudy with Nearby Thunderstorms 77 25 69 20.6 77 77 SE 5 7 29.95 1014 10 16 N/A
2:43 pm 14:43 Mostly Cloudy 78 25.6 68 20 71 71 SSE 5 7 29.96 1015 10 16 N/A
2:53 pm 14:53 Partly Cloudy 78 25.6 68 20 71 71 SSE 6 9 29.96 1015 10 16 N/A
3:53 pm 15:53 Sunny 77 25 68 20 74 74 SSE 6 9 29.96 1015 10 16 N/A
4:53 pm 16:53 Sunny 79 26.1 68 20 69 69 S 6 9 29.94 1014 10 16 N/A
5:53 pm 17:53 Sunny 77 25 68 20 74 74 SSE 5 7 29.96 1014 10 16 N/A
6:53 pm 18:53 Sunny 76 24.4 69 20.6 79 79 S 5 7 29.95 1014 10 16 N/A
7:53 pm 19:53 Sunny 76 24.4 69 20.6 79 79 N N/A 29.95 1014 10 16 N/A
8:53 pm 20:53 Clear 72 22.2 68 20 87 87 N N/A 29.97 1015 10 16 N/A
9:53 pm 21:53 Clear 69 20.6 67 19.4 93 93 N N/A 29.98 1015 10 16 N/A
10:53 pm 22:53 Clear 68 20 66 18.9 93 93 N N/A 29.99 1016 10 16 N/A
11:53 pm 23:53 Clear 68 20 66 18.9 93 93 N N/A 29.98 1015 7 11 N/A

Powered by AerisWeather